Regional Weather Roundup
Issued by NWS Grand Forks, ND

Home | Current Version | Previous Version | Graphics & Text | Print | Product List | Glossary On
Versions: 1 2 3 4 5 6 7 8 9 10 11 12 13 14 15 16 17 18 19 20 21 22 23 24 25 26 27 28 29 30 31 32 33 34 35 36 37 38 39 40 41 42 43 44 45 46 47 48 49 50
000
ASUS43 KFGF 181810
RWRFGF
PRAIRIE TO PINES  WEATHER ROUNDUP
NATIONAL WEATHER SERVICE EASTERN NORTH DAKOTA/GRAND FORKS ND
100 PM CDT THU SEP 18 2014

 **SATELLITE DATA USED TO AUGMENT SKY COVER AT AUTOMATED STATIONS**
 *****  WEATHER ACROSS EASTERN NORTH DAKOTA  *****

CITY           SKY/WX    TMP DP  RH WIND       PRES   REMARKS
GRAND FORKS    PTSUNNY   59  53  80 SE14      29.93F
6HR MIN TEMP:  36; 6HR MAX TEMP:  59;

GRAND FRKS AFB NOT AVBL
GRAND FRKS NWS   N/A     61 N/A N/A S10         N/A
DEVILS LAKE    SUNNY     72  54  53 S17       29.84F
6HR MIN TEMP:  46; 6HR MAX TEMP:  72;

FARGO          MOSUNNY   66  53  63 S14       29.94F
WAHPETON ARPT  CLEAR     63  50  63 SE14      29.97F
$$

 ***** WEATHER ACROSS CENTRAL AND WESTERN NORTH DAKOTA  *****

CITY           SKY/WX    TMP DP  RH WIND       PRES   REMARKS
BISMARCK       SUNNY     77  60  55 S18       29.80F
6HR MIN TEMP:  47; 6HR MAX TEMP:  77;

MINOT          SUNNY     73  55  53 SE18G29   29.72F
6HR MIN TEMP:  44; 6HR MAX TEMP:  75;

JAMESTOWN      SUNNY     72  57  59 S16       29.87F
6HR MIN TEMP:  39; 6HR MAX TEMP:  72;

MINOT AFB      NOT AVBL
GARRISON         N/A     71  59  65 S14G21    29.77F
WILLISTON      PTSUNNY   77  53  43 S10       29.68F
6HR MIN TEMP:  55; 6HR MAX TEMP:  77;

DICKINSON      PTSUNNY   74  57  55 S17       29.76S
6HR MIN TEMP:  51; 6HR MAX TEMP:  75;

HETTINGER      MOSUNNY   74  58  57 S13       29.81F
6HR MIN TEMP:  49; 6HR MAX TEMP:  74;

$$

 *****  OTHER AIRPORT OBSERVATIONS IN OUR AREA  *****

CITY           SKY/WX    TMP DP  RH WIND       PRES   REMARKS
WALHALLA         N/A     61  54  77 SE15      29.89F
GRAFTON AIRPOR CLOUDY    55  54  94 S16       29.92F
VALLEY CITY AR FAIR      63  59  88 SE12      29.92F
CANDO          FAIR      72  54  53 SE18G28   29.83F
CAVALIER APRT  CLOUDY    55  50  82 SE12G20   29.91F
GWINNER        CLEAR     66  55  68 SE15      29.94F
ROLLA          FAIR      70  52  52 S18G25    29.81F
 ***** THE ABOVE OBSERVATIONS ARE NON NWS ARE NOT QUALITY
       CONTROLLED AND MAY MIS-REPORT RAIN FOR SNOW...
$$

  *****  WEATHER ACROSS NORTHERN MINNESOTA  *****

CITY           SKY/WX    TMP DP  RH WIND       PRES   REMARKS
FLAG ISLAND    CLOUDY    46  45  93 SE15      30.01F
WARROAD        CLOUDY    52  46  82 SE7       30.01F
ROSEAU         CLOUDY    52  46  82 SE8       29.99F
HALLOCK        MOSUNNY   61  52  72 S15       29.93F
THF RVR FALLS  SUNNY     64  52  63 SE12      29.96F
6HR MIN TEMP:  48; 6HR MAX TEMP:  64;

BAUDETTE       CLOUDY    48  45  89 SE8       30.03F
6HR MIN TEMP:  42; 6HR MAX TEMP:  48;

WASKISH        MOSUNNY   55  48  76 SE6       30.03F
CROOKSTON      SUNNY     66  54  63 S13       29.95F
STEPHEN NDAWN    N/A     61  55  82 S10         N/A
GREENBUSH NDAW   N/A     57  50  77 SE8         N/A
$$
  *****  WEATHER ACROSS CENTRAL AND WEST MINNESOTA  *****

CITY           SKY/WX    TMP DP  RH WIND       PRES   REMARKS
FOSSTON        SUNNY     66  54  63 SE9       29.98F
BEMIDJI        SUNNY     59  47  63 SE9       30.02F
PARK RAPIDS    SUNNY     59  47  64 SE8       30.03F
6HR MIN TEMP:  45; 6HR MAX TEMP:  59;

ELBOW LAKE     FAIR      60  53  75 SE14      30.00F
6HR MIN TEMP:  48; 6HR MAX TEMP:  61;

WADENA         SUNNY     57  48  72 SE10      30.04S
DETROIT LAKES  SUNNY     59  52  77 SE12      30.00F
MOORHEAD       SUNNY     66  55  68 S13G20    29.96F
FERGUS FALLS   SUNNY     63  50  63 SE15      30.00F
MORRIS MN      SUNNY     64  55  72 SE14      30.00F
STAPLES        MOSUNNY   54  46  76 SE6       30.06F
$$
  *****  WEATHER ELSEWHERE ACROSS MINNESOTA  *****

CITY           SKY/WX    TMP DP  RH WIND       PRES   REMARKS
DULUTH         CLOUDY    48  40  73 SE15      30.14S
6HR MIN TEMP:  42; 6HR MAX TEMP:  49;

INTRNTL FALLS  CLOUDY    51  43  74 VRB7      30.07F
6HR MIN TEMP:  42; 6HR MAX TEMP:  51;

ELY            CLOUDY    48  37  66 SE10      30.12F
CLOQUET        CLOUDY    46  43  87 E5        30.13S
WHEATON        PTSUNNY   59  54  82 SE13      29.99F
BRAINERD       CLOUDY    51  47  86 SE8       30.09F
6HR MIN TEMP:  41; 6HR MAX TEMP:  51;

HIBBING        MOSUNNY   55  43  63 S9        30.10F
6HR MIN TEMP:  42; 6HR MAX TEMP:  56;

ALEXANDRIA     MOSUNNY   58  52  80 SE10      30.05F
6HR MIN TEMP:  47; 6HR MAX TEMP:  58;

SAINT CLOUD    MOSUNNY   64  51  62 SE7       30.08F
6HR MIN TEMP:  47; 6HR MAX TEMP:  64;

MINNEAPOLIS    MOSUNNY   66  55  67 VRB7      30.08F
6HR MIN TEMP:  48; 6HR MAX TEMP:  66;

$$

  *****  WEATHER ACROSS SOUTH DAKOTA  *****

CITY           SKY/WX    TMP DP  RH WIND       PRES   REMARKS
SIOUX FALLS    MOSUNNY   75  55  49 S17       30.01F
6HR MIN TEMP:  56; 6HR MAX TEMP:  75;

BROOKINGS      NOT AVBL
WATERTOWN      PTSUNNY   72  60  66 S15G25    29.95F
6HR MIN TEMP:  54; 6HR MAX TEMP:  73;

HURON          PTSUNNY   75  62  64 S13G23    29.92F
6HR MIN TEMP:  51; 6HR MAX TEMP:  75; 6HR PCP:  0.02;

SISSETON         N/A     59  55  87 S13       29.96F
ABERDEEN       MOSUNNY   75  61  61 S15G24    29.90F
6HR MIN TEMP:  36; 6HR MAX TEMP:  76;

MITCHELL       LGT RAIN  75  63  66 S17G28    29.95F
PIERRE         SUNNY     78  58  49 S22G31    29.84F
6HR MIN TEMP:  56; 6HR MAX TEMP:  78; 6HR PCP: TRACE;

MOBRIDGE       SUNNY     78  62  57 S23       29.80F
RAPID CITY     SUNNY     78  56  46 SE9       29.84F
6HR MIN TEMP:  48; 6HR MAX TEMP:  79;

$$

  *****  SOME WEATHER IN NEARBY STATES *****

CITY           SKY/WX    TMP DP  RH WIND       PRES   REMARKS
GLASGOW MT     PTSUNNY   70  55  59 E3        29.64F
6HR MIN TEMP:  52; 6HR MAX TEMP:  71;

GREAT FALLS MT CLOUDY    71  48  43 SW18      29.75S
6HR MIN TEMP:  60; 6HR MAX TEMP:  71;

CHEYENNE WY    SUNNY     84  31  14 SW9       30.07F
6HR MIN TEMP:  53; 6HR MAX TEMP:  84;

SCOTTSBLUFF NE SUNNY     77  52  41 SE7       29.95F
6HR MIN TEMP:  53; 6HR MAX TEMP:  77;

OMAHA NE       MOSUNNY   72  57  59 SE10      30.03F
6HR MIN TEMP:  60; 6HR MAX TEMP:  73;

DES MOINES IA  MOSUNNY   70  53  54 S13       30.08F
6HR MIN TEMP:  56; 6HR MAX TEMP:  70; 6HR PCP: TRACE;

DAVENPORT IA   SUNNY     71  50  47 SE9       30.12S
6HR MIN TEMP:  47; 6HR MAX TEMP:  71;

CHICAGO IL     PTSUNNY   69  54  58 VRB7      30.15R
6HR MIN TEMP:  54; 6HR MAX TEMP:  69;

EAU CLAIRE WI  NOT AVBL
LA CROSSE WI   SUNNY     64  54  69 VRB5      30.13F
6HR MIN TEMP:  51; 6HR MAX TEMP:  65;

$$

  *****  SOME NATIONAL WEATHER *****

CITY           SKY/WX    TMP DP  RH WIND       PRES   REMARKS
LA GUARDIA NY  MOSUNNY   74  46  36 NW6       29.98F
6HR MIN TEMP:  62; 6HR MAX TEMP:  74;

RALEIGH NC     MOSUNNY   78  60  53 N5        30.01S
6HR MIN TEMP:  63; 6HR MAX TEMP:  80;

ATLANTA GA     MOSUNNY   83  62  49 SE5       29.99F
6HR MIN TEMP:  66; 6HR MAX TEMP:  83;

NEW ORLEANS LA CLOUDY    87  72  60 S7        29.91F HX  93
6HR MIN TEMP:  76; 6HR MAX TEMP:  88;

OKLAHOMA CITY  MOSUNNY   80  65  59 SE15G23   29.99S
6HR MIN TEMP:  67; 6HR MAX TEMP:  81; 6HR PCP:  0.07;

ALBUQUERQUE NM MOSUNNY   74  52  46 N7        30.07F
6HR MIN TEMP:  58; 6HR MAX TEMP:  74;

SALT LAKE CITY MOSUNNY   86  46  24 S17G25    29.90F
6HR MIN TEMP:  68; 6HR MAX TEMP:  87;

LOS ANGELES CA MOSUNNY   75  60  59 W17       29.89S
6HR MIN TEMP:  67; 6HR MAX TEMP:  75;



USA.gov is the U.S. government's official web portal to all federal, state and local government web resources and services.